CFWAL KTEB-CYTZ

Flight info

Callsign CFWAL
Flight time N/A
Altitude 24000
Route GAYEL Q818 WOZEE DCT KAXOL KAXOL2
Aircraft PC12/L-SDFGRWY/S

Departure

Time 2026-05-04 00:28
Airport Teterboro Airport (KTEB)

Arrival

Time N/A
Airport Billy Bishop Toronto City Airport (CYTZ)
Time Latitude Longitude Altitude Speed Heading
2026-05-04 00:18 40.85549 -74.06307 12 ft 0 kts 217°
2026-05-04 00:23 40.85537 -74.06317 12 ft 6 kts 191°
2026-05-04 00:24 40.85543 -74.06268 12 ft 10 kts 37°
2026-05-04 00:24 40.85598 -74.06197 11 ft 12 kts 96°
2026-05-04 00:24 40.85594 -74.06183 11 ft 13 kts 122°
2026-05-04 00:25 40.85575 -74.06146 11 ft 14 kts 124°
2026-05-04 00:25 40.85566 -74.06067 11 ft 10 kts 22°
2026-05-04 00:25 40.85645 -74.06053 11 ft 12 kts
2026-05-04 00:26 40.85737 -74.06047 11 ft 14 kts
2026-05-04 00:26 40.85783 -74.05967 11 ft 13 kts 92°
2026-05-04 00:26 40.85779 -74.05832 11 ft 16 kts 89°
2026-05-04 00:26 40.85795 -74.05676 11 ft 17 kts 79°
2026-05-04 00:27 40.85812 -74.05533 11 ft 13 kts 83°
2026-05-04 00:27 40.85785 -74.05440 11 ft 12 kts 150°
2026-05-04 00:27 40.85730 -74.05476 11 ft 0 kts 228°
2026-05-04 00:28 40.85676 -74.05556 11 ft 36 kts 229°
2026-05-04 00:28 40.85382 -74.05992 47 ft 83 kts 232°
2026-05-04 00:28 40.84935 -74.06591 297 ft 100 kts 232°
2026-05-04 00:28 40.84420 -74.07265 712 ft 107 kts 230°
2026-05-04 00:29 40.83871 -74.08041 1013 ft 128 kts 233°
2026-05-04 00:29 40.83249 -74.09010 1440 ft 146 kts 235°
2026-05-04 00:29 40.82665 -74.10232 1511 ft 170 kts 258°
2026-05-04 00:29 40.82488 -74.11854 1512 ft 187 kts 266°
2026-05-04 00:30 40.82375 -74.13618 1509 ft 199 kts 267°
2026-05-04 00:30 40.82271 -74.15477 1585 ft 202 kts 266°
2026-05-04 00:30 40.82172 -74.17313 1841 ft 199 kts 268°
2026-05-04 00:30 40.82063 -74.19078 2349 ft 185 kts 267°
2026-05-04 00:31 40.81953 -74.20707 2925 ft 171 kts 270°
2026-05-04 00:31 40.82325 -74.22080 3574 ft 159 kts 311°
2026-05-04 00:31 40.83314 -74.22607 4267 ft 158 kts 352°
2026-05-04 00:31 40.84411 -74.22589 4827 ft 158 kts 348°
2026-05-04 00:32 40.85501 -74.22765 5374 ft 158 kts 344°
2026-05-04 00:32 40.86584 -74.23004 5906 ft 158 kts 343°
2026-05-04 00:32 40.87672 -74.23257 6464 ft 159 kts 343°
2026-05-04 00:32 40.88763 -74.23511 7004 ft 159 kts 343°
2026-05-04 00:33 40.89848 -74.23764 7549 ft 159 kts 343°
2026-05-04 00:33 40.92014 -74.24269 8644 ft 158 kts 343°
2026-05-04 00:33 40.93097 -74.24522 9213 ft 158 kts 343°
2026-05-04 00:34 40.94176 -74.24774 9779 ft 158 kts 342°
2026-05-04 00:34 40.95260 -74.25028 10270 ft 158 kts 343°
2026-05-04 00:34 40.96350 -74.25282 10744 ft 159 kts 343°
2026-05-04 00:34 40.97444 -74.25538 11207 ft 160 kts 344°
2026-05-04 00:35 40.98544 -74.25789 11679 ft 161 kts 345°
2026-05-04 00:35 40.99652 -74.26046 12177 ft 162 kts 345°
2026-05-04 00:35 41.00761 -74.26305 12686 ft 162 kts 345°
2026-05-04 00:35 41.01874 -74.26566 13191 ft 163 kts 345°
2026-05-04 00:36 41.02993 -74.26829 13651 ft 164 kts 345°
2026-05-04 00:36 41.04118 -74.27093 14066 ft 165 kts 345°
2026-05-04 00:36 41.05258 -74.27361 14469 ft 167 kts 345°
2026-05-04 00:36 41.06412 -74.27632 14904 ft 170 kts 345°
2026-05-04 00:37 41.07505 -74.28135 15311 ft 166 kts 320°
2026-05-04 00:37 41.08256 -74.29310 15679 ft 169 kts 308°
2026-05-04 00:37 41.08959 -74.30572 16112 ft 170 kts 308°
2026-05-04 00:37 41.09710 -74.31797 16520 ft 172 kts 310°
2026-05-04 00:38 41.10501 -74.32994 16945 ft 173 kts 311°
2026-05-04 00:38 41.11303 -74.34192 17352 ft 175 kts 311°
2026-05-04 00:38 41.12101 -74.35389 17756 ft 176 kts 310°
2026-05-04 00:38 41.12915 -74.36613 18184 ft 178 kts 310°
2026-05-04 00:39 41.13737 -74.37850 18550 ft 179 kts 310°
2026-05-04 00:39 41.14564 -74.39093 18901 ft 180 kts 310°
2026-05-04 00:39 41.15393 -74.40341 19268 ft 181 kts 309°
2026-05-04 00:39 41.16226 -74.41596 19641 ft 182 kts 309°
2026-05-04 00:40 41.17063 -74.42856 20023 ft 182 kts 309°
2026-05-04 00:40 41.17903 -74.44122 20392 ft 183 kts 308°
2026-05-04 00:40 41.18746 -74.45394 20764 ft 184 kts 308°
2026-05-04 00:40 41.19593 -74.46672 21136 ft 185 kts 308°
2026-05-04 00:41 41.20443 -74.47954 21523 ft 185 kts 308°
2026-05-04 00:41 41.21298 -74.49244 21862 ft 187 kts 307°
2026-05-04 00:41 41.22157 -74.50542 22185 ft 188 kts 307°
2026-05-04 00:41 41.23022 -74.51849 22512 ft 188 kts 307°
2026-05-04 00:42 41.23888 -74.53157 22862 ft 189 kts 307°
2026-05-04 00:42 41.24755 -74.54468 23207 ft 189 kts 306°
2026-05-04 00:42 41.25627 -74.55787 23524 ft 190 kts 306°
2026-05-04 00:42 41.26502 -74.57111 23802 ft 191 kts 306°
2026-05-04 00:43 41.27385 -74.58451 23936 ft 198 kts 306°
2026-05-04 00:43 41.28316 -74.59865 23945 ft 208 kts 307°
2026-05-04 00:43 41.29291 -74.61341 23949 ft 216 kts 307°
2026-05-04 00:43 41.30296 -74.62860 23945 ft 221 kts 307°
2026-05-04 00:44 41.31318 -74.64409 23950 ft 224 kts 307°
2026-05-04 00:44 41.32352 -74.65977 23949 ft 226 kts 307°
2026-05-04 00:44 41.33394 -74.67561 23947 ft 229 kts 307°